Wind_Speed
39 42 43 45 47 46 45 46 46 48 50 52 55 57 59 62 63 66 66 67 67 67 67 66 67 66 68 69 69 69 70 65 65 62 65 71 70 67 62 62 60 58 52
35 37 39 38 38 40 44 47 50 52 55 56 59 63 65 67 69 71 72 73 73 74 75 75 74 73 73 73 72 74 76 72 72 67 66 67 64 62 60 60 60 62 62
32 31 31 32 37 41 45 49 51 54 57 60 65 69 72 76 78 80 82 82 83 83 82 80 78 78 77 76 78 78 73 67 63 59 57 53 52 52 47 45 46 48 50
28 29 30 35 40 45 50 54 57 59 62 65 69 73 77 81 84 86 88 88 87 86 84 83 81 78 76 71 64 58 55 54 52 49 47 46 45 45 43 41 44 46 47
27 31 35 39 44 48 53 57 59 59 61 63 62 62 62 63 63 64 64 65 67 67 66 65 63 59 55 54 54 56 57 55 52 49 47 45 42 43 41 39 41 41 44
32 35 39 45 49 54 57 56 56 56 52 51 53 53 52 51 51 50 48 46 47 48 50 52 52 52 52 52 51 50 50 50 48 47 44 42 37 37 39 41 43 42 42
38 42 46 51 56 57 54 52 50 48 50 51 52 51 50 47 46 45 45 45 45 46 48 48 49 50 51 51 51 51 51 50 48 45 43 41 39 37 38 37 40 42 42
43 45 49 56 55 53 50 47 45 47 51 51 47 45 44 47 48 46 45 47 48 49 49 49 49 50 51 51 52 52 52 52 52 52 50 46 45 43 43 42 42 44 42
46 50 55 55 52 50 47 44 45 46 42 41 43 44 44 45 47 48 49 49 49 50 53 55 55 56 57 57 58 58 58 56 55 54 54 52 48 44 41 41 40 42 41
51 54 58 54 50 48 45 43 44 43 43 41 40 43 45 45 48 49 50 52 56 58 58 58 60 61 62 62 62 62 61 60 62 61 60 57 53 51 49 47 45 45 44
53 56 55 49 47 45 43 43 40 40 37 38 39 42 45 46 49 52 53 53 54 53 52 52 53 54 55 57 59 59 59 59 58 57 58 60 59 58 55 53 51 48 46
53 54 50 46 43 43 39 36 35 34 35 38 40 41 44 46 48 48 48 51 52 50 48 48 48 50 52 53 55 54 52 50 49 51 49 48 51 54 54 52 47 45 43
52 49 45 40 37 30 29 29 32 34 35 36 38 40 42 43 43 47 49 49 48 44 45 46 48 49 48 48 48 45 45 44 40 39 40 42 42 41 43 43 41 40 38
47 46 36 28 26 26 25 29 31 30 34 37 39 37 37 38 41 45 47 45 42 41 44 43 42 40 40 37 31 30 31 33 33 32 33 35 35 33 33 35 35 35 32
46 34 25 23 23 24 27 28 27 31 34 37 34 34 34 36 40 45 43 40 38 39 40 36 34 32 28 21 17 16 18 22 26 27 27 27 28 29 30 31 31 31 29
36 24 22 21 21 24 26 26 27 32 38 40 36 33 35 36 38 39 42 38 35 38 27 24 24 20 20 16 11 7 8 10 13 15 17 18 19 20 24 29 29 29 29
26 21 21 20 21 22 22 21 28 34 39 38 37 34 34 34 37 37 37 37 35 31 28 21 17 19 17 15 13 8 5 3 3 8 6 11 17 18 19 22 30 29 28
21 20 19 18 21 20 20 21 22 25 34 37 37 33 33 33 34 32 35 36 31 28 27 19 16 17 15 12 9 10 9 4 2 3 5 6 10 13 19 23 27 28 27
20 19 17 18 19 20 20 21 22 25 32 38 36 33 32 31 31 27 32 32 29 26 25 20 16 16 17 16 12 10 3 4 4 2 1 4 11 16 20 23 23 29 31
18 17 16 16 17 19 20 22 23 26 31 35 34 30 28 29 28 24 30 30 26 24 22 21 20 22 20 17 13 11 11 4 1 6 16 17 16 16 19 21 26 29 28
17 15 13 13 15 19 21 22 23 25 27 32 34 29 25 26 27 23 24 28 25 24 23 20 24 28 20 20 15 12 10 8 10 13 21 22 19 25 23 27 30 28 28
14 13 14 13 15 18 21 22 23 24 26 29 32 30 26 24 24 24 21 24 25 24 23 22 21 21 22 23 18 14 10 8 9 11 12 15 20 24 25 25 28 28 28
15 13 13 13 15 18 21 22 23 23 24 24 30 33 26 24 20 21 18 18 23 23 23 23 21 19 17 20 13 16 11 6 6 10 12 16 19 19 24 25 26 26 25
13 13 13 13 15 18 20 22 22 22 22 24 27 30 27 24 19 17 17 14 18 18 18 20 22 23 21 18 14 15 17 11 4 3 7 11 19 25 25 24 24 20 24
15 13 12 13 14 16 18 18 18 18 19 22 24 26 26 24 18 13 14 11 13 15 13 14 13 19 19 21 20 19 18 16 10 7 6 8 17 22 26 27 24 19 28
16 14 11 12 13 14 13 12 13 15 17 19 23 25 28 25 20 12 12 10 7 9 9 11 9 14 16 12 10 12 13 20 22 22 20 26 28 27 25 23 22 25 26
Wind_Direction
271 271 272 272 273 276 277 279 280 281 281 282 283 284 284 283 284 284 283 283 283 282 281 281 280 280 281 281 282 281 278 273 272 273 272 272 271 272 271 270 268 267 266
270 270 272 276 282 286 287 287 286 287 288 290 289 289 289 288 288 286 285 285 284 284 283 282 283 283 284 284 285 283 282 282 280 279 276 274 274 271 269 269 269 268 268
263 273 279 283 285 285 284 284 287 288 289 289 289 288 286 285 284 283 283 282 282 280 280 280 281 282 283 284 283 282 282 282 282 280 276 271 265 263 262 264 265 266 266
271 274 278 277 280 284 287 289 290 291 289 286 285 283 281 280 279 278 276 276 277 278 279 280 281 280 279 279 278 278 279 279 280 279 275 270 266 264 263 262 261 261 261
278 279 282 288 292 294 295 296 294 292 291 290 290 291 291 290 289 287 285 283 282 281 280 279 278 277 277 278 277 277 278 278 277 277 276 273 269 265 264 262 258 256 258
284 293 296 299 300 300 298 296 296 295 293 293 294 294 294 295 295 296 296 295 290 286 283 282 282 281 280 280 280 279 278 278 278 275 275 272 267 262 259 258 259 258 255
295 295 299 303 302 300 298 296 294 293 293 293 294 295 296 295 295 295 295 294 292 289 286 284 283 281 281 280 279 279 279 277 275 272 271 269 265 260 254 256 259 261 266
294 298 301 305 303 301 299 295 296 297 299 297 295 294 294 295 295 296 297 297 296 295 293 291 287 283 281 280 279 278 277 278 276 274 270 267 264 261 261 258 257 258 261
298 302 307 306 304 302 299 299 300 301 301 299 296 296 297 298 299 300 299 296 295 294 293 289 285 282 278 276 274 272 270 270 268 268 268 268 268 262 257 256 256 256 256
302 306 309 307 304 301 299 299 299 298 301 299 299 300 304 304 304 303 301 299 297 295 291 288 285 283 281 279 276 273 270 268 264 263 263 263 262 260 258 258 258 260 259
303 306 305 302 298 297 296 296 296 300 301 301 305 307 308 306 305 304 303 301 299 297 295 292 290 286 283 280 276 272 268 266 264 263 260 260 260 260 259 257 257 257 256
305 304 301 299 295 295 294 294 299 302 305 309 310 311 310 311 311 310 310 311 310 307 303 298 294 291 288 284 278 272 269 266 265 262 260 258 257 257 257 255 253 253 249
303 301 301 297 297 295 298 302 304 309 310 313 318 319 317 316 317 316 316 314 311 311 309 305 302 299 295 290 283 274 266 263 261 259 257 255 255 255 255 252 245 240 238
305 304 299 297 299 302 305 306 308 312 323 322 322 321 321 318 319 320 319 318 314 313 315 315 312 308 305 297 285 273 263 260 258 257 255 252 249 248 247 245 237 230 228
305 299 293 296 303 307 310 311 317 326 326 328 324 322 325 326 326 327 330 329 326 324 318 317 321 322 321 312 296 274 262 255 253 255 252 248 246 243 237 232 229 225 220
302 289 291 300 304 313 314 320 328 328 335 331 328 328 332 336 333 334 336 333 330 336 337 335 337 347 351 342 334 316 284 263 252 248 246 241 235 229 228 223 216 209 210
292 285 294 297 307 315 321 328 332 335 340 336 332 333 336 337 337 341 343 343 338 342 345 342 345 349 357 5 6 8 0 328 263 235 233 237 227 220 214 203 192 197 192
282 287 289 297 308 320 328 333 335 340 345 341 336 336 336 339 340 349 350 353 357 353 354 2 357 5 9 8 11 10 14 27 103 184 206 206 193 194 190 186 183 185 187
283 282 283 296 307 323 331 328 327 330 341 347 341 337 341 342 341 356 4 6 13 14 11 10 10 20 24 26 35 14 50 87 100 69 46 166 165 165 166 172 181 176 168
276 280 282 296 308 324 331 329 329 330 334 344 345 340 339 345 341 348 0 11 17 20 19 28 36 38 32 31 34 41 57 50 278 127 109 110 119 146 168 176 173 176 179
277 266 274 290 308 322 332 335 335 334 341 349 352 347 345 344 344 349 1 9 15 17 27 33 45 31 39 39 36 47 65 85 85 94 124 122 127 134 137 143 149 154 155
272 267 269 277 299 316 330 336 343 343 340 347 358 359 351 349 345 349 3 11 18 31 41 46 49 33 44 51 44 32 38 70 95 114 136 133 135 142 148 144 154 163 160
268 265 271 273 291 307 324 331 339 346 342 346 354 359 357 353 350 346 1 13 19 24 32 38 43 42 44 22 23 45 24 49 85 115 121 153 150 151 147 150 150 154 159
256 260 269 279 295 308 319 329 334 338 337 338 342 351 357 355 356 345 352 13 19 23 29 36 54 58 53 51 41 41 44 56 82 148 145 131 162 162 160 161 160 159 160
249 257 269 284 297 309 322 331 336 336 342 348 351 352 359 1 359 352 345 0 26 21 32 39 60 65 59 52 43 45 54 60 52 76 113 153 166 148 163 162 166 163 159
244 254 268 285 301 313 322 330 341 346 350 356 359 358 4 5 2 356 348 341 15 35 35 54 76 82 69 73 63 57 81 91 96 96 108 116 131 142 152 157 152 152 160
Height
5766 5764 5761 5759 5758 5756 5755 5752 5749 5744 5740 5736 5732 5729 5725 5722 5716 5713 5709 5706 5705 5703 5700 5698 5695 5692 5690 5687 5684 5682 5681 5677 5674 5684 5677 5675 5677 5677 5679 5680 5682 5683 5685
5758 5755 5754 5753 5752 5748 5745 5740 5736 5731 5728 5725 5721 5717 5713 5708 5703 5699 5695 5691 5688 5684 5679 5675 5672 5671 5669 5667 5664 5662 5659 5656 5653 5657 5659 5657 5657 5656 5658 5661 5663 5666 5667
5752 5750 5749 5747 5744 5740 5735 5730 5728 5724 5720 5714 5710 5705 5698 5692 5686 5681 5676 5671 5667 5664 5660 5656 5654 5651 5649 5646 5643 5641 5638 5634 5632 5633 5636 5636 5637 5637 5641 5644 5646 5646 5648
5746 5744 5742 5738 5734 5730 5727 5722 5717 5712 5707 5701 5694 5687 5679 5673 5667 5662 5655 5651 5646 5643 5640 5637 5635 5632 5630 5627 5625 5623 5621 5618 5617 5617 5618 5620 5622 5625 5627 5631 5632 5632 5634
5736 5732 5729 5727 5723 5718 5713 5707 5701 5694 5688 5682 5675 5668 5661 5655 5648 5640 5635 5630 5627 5624 5621 5617 5615 5612 5611 5610 5608 5607 5605 5603 5603 5603 5604 5606 5611 5612 5613 5615 5615 5619 5621
5724 5721 5718 5716 5711 5705 5699 5691 5685 5678 5672 5667 5662 5656 5649 5641 5633 5627 5621 5617 5613 5610 5606 5603 5600 5598 5596 5594 5592 5590 5590 5590 5589 5589 5591 5592 5598 5598 5600 5601 5601 5604 5608
5715 5712 5709 5703 5697 5690 5684 5678 5673 5668 5662 5656 5649 5642 5635 5627 5621 5616 5611 5607 5602 5598 5594 5590 5588 5584 5582 5579 5577 5575 5574 5574 5574 5576 5577 5579 5581 5585 5587 5590 5590 5592 5596
5707 5702 5697 5691 5683 5677 5672 5667 5661 5655 5649 5642 5636 5629 5624 5617 5611 5605 5599 5594 5589 5584 5579 5576 5573 5569 5565 5563 5562 5560 5560 5559 5559 5560 5562 5566 5568 5572 5574 5577 5580 5582 5585
5694 5689 5683 5676 5670 5664 5659 5654 5649 5644 5637 5631 5625 5619 5614 5607 5600 5594 5588 5582 5577 5571 5565 5559 5555 5552 5548 5546 5545 5544 5544 5543 5543 5544 5545 5549 5553 5557 5561 5563 5568 5569 5573
5682 5676 5669 5663 5658 5653 5648 5644 5639 5634 5628 5622 5616 5610 5603 5596 5588 5581 5573 5568 5562 5556 5549 5542 5535 5530 5526 5523 5522 5522 5523 5523 5524 5526 5529 5532 5535 5539 5544 5548 5553 5556 5560
5673 5666 5660 5654 5649 5644 5639 5634 5629 5625 5619 5613 5607 5600 5592 5584 5575 5568 5559 5552 5545 5538 5531 5524 5517 5510 5506 5502 5499 5500 5501 5502 5504 5506 5509 5512 5516 5521 5526 5533 5537 5542 5546
5663 5656 5650 5644 5639 5634 5629 5625 5621 5616 5610 5603 5597 5589 5580 5571 5563 5553 5545 5536 5528 5522 5514 5507 5501 5493 5487 5483 5480 5479 5480 5482 5486 5488 5491 5495 5498 5503 5507 5514 5521 5527 5533
5654 5647 5640 5634 5629 5624 5621 5617 5612 5607 5601 5594 5587 5579 5571 5560 5552 5543 5534 5525 5516 5508 5500 5493 5486 5478 5471 5465 5460 5460 5462 5466 5470 5473 5476 5480 5484 5490 5494 5499 5506 5512 5519
5641 5634 5629 5625 5621 5617 5614 5610 5604 5599 5593 5585 5578 5570 5562 5553 5545 5536 5526 5515 5505 5498 5490 5482 5473 5465 5457 5449 5444 5445 5448 5452 5457 5460 5464 5468 5473 5478 5483 5488 5494 5501 5509
5630 5624 5621 5618 5615 5611 5607 5602 5596 5591 5586 5579 5571 5564 5557 5547 5537 5528 5517 5508 5499 5490 5481 5473 5465 5457 5448 5442 5438 5438 5440 5443 5448 5452 5455 5459 5463 5469 5473 5479 5486 5492 5500
5620 5617 5615 5612 5609 5605 5600 5594 5590 5585 5578 5570 5563 5557 5549 5540 5532 5522 5512 5502 5493 5484 5475 5468 5462 5455 5448 5443 5439 5438 5439 5441 5443 5446 5449 5453 5456 5461 5465 5471 5479 5486 5493
5612 5611 5608 5606 5603 5600 5596 5591 5584 5578 5571 5564 5557 5550 5543 5536 5527 5518 5508 5499 5489 5481 5474 5467 5462 5457 5451 5447 5444 5442 5442 5442 5444 5445 5448 5450 5453 5457 5461 5467 5475 5482 5490
5606 5604 5602 5600 5598 5596 5592 5588 5583 5578 5570 5560 5553 5546 5539 5532 5524 5516 5507 5498 5488 5480 5473 5467 5462 5457 5453 5450 5448 5447 5446 5445 5445 5446 5447 5448 5450 5454 5460 5466 5474 5482 5489
5601 5599 5597 5595 5594 5591 5587 5584 5579 5574 5568 5559 5549 5542 5536 5530 5522 5515 5508 5499 5490 5483 5476 5470 5465 5461 5458 5454 5452 5450 5449 5449 5449 5449 5449 5451 5454 5457 5463 5469 5475 5482 5491
5595 5593 5592 5591 5590 5587 5584 5580 5575 5570 5564 5556 5548 5541 5534 5528 5521 5515 5509 5501 5494 5487 5482 5475 5470 5466 5462 5459 5457 5456 5455 5454 5454 5455 5455 5455 5457 5461 5466 5471 5477 5485 5494
5589 5588 5587 5587 5585 5583 5580 5576 5572 5566 5560 5554 5546 5539 5533 5527 5520 5514 5510 5504 5496 5491 5486 5481 5476 5472 5468 5465 5462 5461 5461 5461 5461 5461 5462 5464 5466 5468 5472 5476 5483 5490 5497
5583 5583 5582 5582 5581 5579 5575 5572 5568 5563 5557 5552 5545 5537 5531 5525 5520 5515 5511 5506 5500 5495 5491 5487 5483 5479 5475 5471 5469 5467 5467 5467 5467 5467 5468 5470 5471 5475 5481 5485 5490 5496 5502
5578 5578 5577 5577 5576 5575 5572 5568 5565 5560 5555 5550 5544 5537 5530 5525 5519 5515 5512 5509 5504 5499 5495 5491 5488 5485 5482 5479 5475 5472 5472 5472 5472 5473 5474 5476 5479 5483 5488 5493 5497 5502 5506
5573 5573 5573 5572 5572 5570 5567 5564 5561 5558 5553 5548 5543 5537 5530 5525 5519 5515 5513 5511 5507 5503 5500 5497 5493 5491 5488 5486 5484 5481 5478 5477 5477 5477 5480 5482 5485 5488 5493 5498 5503 5507 5512
5568 5568 5568 5567 5567 5566 5563 5561 5558 5555 5551 5547 5542 5537 5531 5525 5520 5516 5513 5511 5510 5507 5504 5502 5500 5498 5496 5494 5492 5489 5487 5485 5485 5484 5485 5486 5490 5494 5499 5504 5509 5514 5519
5562 5563 5563 5563 5563 5562 5560 5558 5556 5553 5550 5546 5541 5536 5531 5526 5521 5517 5514 5511 5511 5509 5507 5506 5504 5503 5501 5500 5499 5499 5498 5496 5494 5493 5493 5494 5497 5502 5507 5511 5515 5520 5524